Zurück zum Katalog

IRIDIUM 33 DEB

AktivPO
NORAD 34508·DEBRIS·🇺🇸 United States

Gestartet Sep 14, 1997 von Baikonur Cosmodrome

Loading…

Nächste Überflüge (nächste 24 Stunden)

TLE

AktuellSource: Space-Track

Epoche: Sep 14, 2026, 04:20 UTC

1 34508U 97051GZ  26257.18071707  .00001736  00000-0  53245-3 0  9994
2 34508  86.3751 345.6701 0062022 349.7291  10.2636 14.40080436912713

Verfolge IRIDIUM 33 DEB in Echtzeit mit AllMySat

Download on the App Store